User: anonymous   Login
Location: Unspecified
(0.0000°N, 0.0000°E)
Time: 19:17:03
(UTC+00:00)
Language:

MUOS - Orbit

View from above orbital plane
View from above orbital plane
View from above satellite
View from above satellite

Ground track
Ground track

The orbit data is extracted from the following two-line orbital elements,

1 38093U 12009A   16184.64379313 0.00000000  00000-0  00000-0 0    04
2 38093   3.5717 335.7860 0059495 182.0591 177.9297  1.00270000    00
Epoch (UTC): 02 July 2016 15:27:03
Eccentricity: 0.0059495
inclination: 3.5717°
perigee height: 35536 km
apogee height: 36037 km
right ascension of ascending node: 335.7860°
argument of perigee: 182.0591°
revolutions per day: 1.00270000
mean anomaly at epoch: 177.9297°
orbit number at epoch: 0

The dashed part of the orbit path shows where the satellite is in the earth's shadow,  

DLR